Hourly Weather Bashtanka

Today, 23 June, Wednesday

Time Temperature Precipitation Wind Pressure Humidity
00:00 +23°C° 0 mm 1 mps 751 mmHg 81%
01:00 +23°C° 0 mm 1 mps 751 mmHg 82%
02:00 +22°C° 0 mm 1 mps 751 mmHg 82%
03:00 +22°C° 0 mm 1 mps 751 mmHg 82%
04:00 +22°C° 0 mm 1 mps 751 mmHg 82%
05:00 +23°C° 0 mm 1 mps 752 mmHg 81%
06:00 +24°C° 0 mm 1 mps 752 mmHg 76%
07:00 +26°C° 0 mm 1 mps 752 mmHg 71%
08:00 +27°C° 0 mm 1 mps 752 mmHg 65%
09:00 +28°C° 0 mm 2 mps 752 mmHg 61%
10:00 +29°C° 0 mm 2 mps 752 mmHg 58%
11:00 +31°C° 0 mm 2 mps 753 mmHg 54%
12:00 +31°C° 0 mm 2 mps 753 mmHg 52%
13:00 +32°C° 0 mm 2 mps 752 mmHg 50%
14:00 +32°C° 0 mm 2 mps 752 mmHg 49%
15:00 +32°C° 0 mm 2 mps 753 mmHg 51%
16:00 +32°C° 0 mm 2 mps 753 mmHg 53%
17:00 +31°C° 0 mm 2 mps 753 mmHg 55%
18:00 +30°C° 0.2 mm 2 mps 753 mmHg 60%
19:00 +29°C° 0.2 mm 2 mps 753 mmHg 65%
20:00 +27°C° 0.2 mm 2 mps 753 mmHg 70%
21:00 +27°C° 0.2 mm 2 mps 753 mmHg 73%
22:00 +26°C° 0.2 mm 1 mps 754 mmHg 76%
23:00 +25°C° 0.2 mm 1 mps 754 mmHg 79%

Tomorrow, 24 June, Thursday

Time Temperature Precipitation Wind Pressure Humidity
00:00 +25°C° 0 mm 1 mps 753 mmHg 80%
01:00 +25°C° 0 mm 2 mps 753 mmHg 81%
02:00 +24°C° 0 mm 2 mps 753 mmHg 82%
03:00 +24°C° 0 mm 2 mps 753 mmHg 82%
04:00 +24°C° 0 mm 2 mps 753 mmHg 82%
05:00 +25°C° 0 mm 3 mps 753 mmHg 82%
06:00 +26°C° 0 mm 3 mps 753 mmHg 76%
07:00 +28°C° 0 mm 4 mps 753 mmHg 69%
08:00 +29°C° 0 mm 5 mps 753 mmHg 63%
09:00 +32°C° 0 mm 5 mps 753 mmHg 57%
10:00 +33°C° 0 mm 5 mps 753 mmHg 52%
11:00 +34°C° 0 mm 5 mps 753 mmHg 46%
12:00 +35°C° 0 mm 5 mps 753 mmHg 45%
13:00 +35°C° 0 mm 5 mps 752 mmHg 43%
14:00 +36°C° 0 mm 4 mps 752 mmHg 42%
15:00 +35°C° 0 mm 4 mps 752 mmHg 44%
16:00 +35°C° 0 mm 4 mps 752 mmHg 46%
17:00 +35°C° 0 mm 4 mps 752 mmHg 48%
18:00 +33°C° 0 mm 4 mps 752 mmHg 56%
19:00 +30°C° 0 mm 4 mps 753 mmHg 64%
20:00 +28°C° 0 mm 4 mps 753 mmHg 72%
21:00 +26°C° 0.1 mm 4 mps 753 mmHg 74%
22:00 +24°C° 0.1 mm 3 mps 753 mmHg 76%
23:00 +22°C° 0.1 mm 3 mps 753 mmHg 78%

Day after tomorrow, 25 June, Friday

Time Temperature Precipitation Wind Pressure Humidity
00:00 +21°C° 0 mm 2 mps 753 mmHg 81%
01:00 +21°C° 0 mm 2 mps 752 mmHg 83%
02:00 +22°C° 0 mm 1 mps 752 mmHg 86%
03:00 +22°C° 0.2 mm 1 mps 752 mmHg 86%
04:00 +21°C° 0.2 mm 2 mps 752 mmHg 87%
05:00 +23°C° 0.2 mm 2 mps 753 mmHg 87%
06:00 +24°C° 0 mm 2 mps 753 mmHg 81%
07:00 +26°C° 0 mm 3 mps 753 mmHg 74%
08:00 +28°C° 0 mm 3 mps 753 mmHg 68%
09:00 +29°C° 0 mm 3 mps 753 mmHg 60%
10:00 +31°C° 0 mm 2 mps 752 mmHg 53%
11:00 +32°C° 0 mm 2 mps 752 mmHg 45%
12:00 +34°C° 0 mm 2 mps 752 mmHg 42%
13:00 +35°C° 0 mm 2 mps 752 mmHg 39%
14:00 +36°C° 0 mm 2 mps 751 mmHg 36%
15:00 +36°C° 0 mm 2 mps 751 mmHg 37%
16:00 +36°C° 0 mm 2 mps 751 mmHg 39%
17:00 +35°C° 0 mm 3 mps 751 mmHg 40%
18:00 +34°C° 0 mm 3 mps 751 mmHg 47%
19:00 +31°C° 0 mm 3 mps 750 mmHg 53%
20:00 +29°C° 0 mm 2 mps 750 mmHg 60%
21:00 +28°C° 0 mm 2 mps 750 mmHg 62%
22:00 +27°C° 0 mm 2 mps 750 mmHg 65%
23:00 +26°C° 0 mm 1 mps 750 mmHg 67%

26 June, Saturday

Time Temperature Precipitation Wind Pressure Humidity
00:00 +26°C° 0.1 mm 1 mps 750 mmHg 70%
01:00 +25°C° 0.1 mm 1 mps 750 mmHg 72%
02:00 +25°C° 0.1 mm 2 mps 750 mmHg 74%
03:00 +25°C° 0 mm 1 mps 750 mmHg 75%
04:00 +25°C° 0 mm 1 mps 750 mmHg 76%
05:00 +25°C° 0 mm 1 mps 750 mmHg 77%
06:00 +26°C° 0 mm 1 mps 750 mmHg 71%
07:00 +28°C° 0 mm 2 mps 750 mmHg 65%
08:00 +30°C° 0 mm 2 mps 750 mmHg 59%
09:00 +31°C° 0 mm 2 mps 750 mmHg 55%
10:00 +32°C° 0 mm 2 mps 750 mmHg 50%
11:00 +34°C° 0 mm 2 mps 750 mmHg 46%
12:00 +35°C° 0 mm 2 mps 750 mmHg 43%
13:00 +35°C° 0 mm 1 mps 750 mmHg 41%
14:00 +35°C° 0 mm 1 mps 750 mmHg 38%
15:00 +36°C° 0 mm 2 mps 750 mmHg 40%
16:00 +35°C° 0 mm 2 mps 749 mmHg 42%
17:00 +35°C° 0 mm 2 mps 749 mmHg 44%
18:00 +32°C° 0 mm 2 mps 749 mmHg 50%
19:00 +30°C° 0 mm 2 mps 749 mmHg 57%
20:00 +29°C° 0 mm 2 mps 749 mmHg 63%
21:00 +27°C° 0.5 mm 3 mps 749 mmHg 69%
22:00 +26°C° 0.5 mm 3 mps 749 mmHg 75%
23:00 +25°C° 0.5 mm 4 mps 750 mmHg 82%

27 June, Sunday

Time Temperature Precipitation Wind Pressure Humidity
00:00 +23°C° 0.5 mm 4 mps 750 mmHg 82%
01:00 +24°C° 0.5 mm 3 mps 750 mmHg 83%
02:00 +22°C° 0.5 mm 3 mps 750 mmHg 84%
03:00 +23°C° 0.2 mm 2 mps 750 mmHg 83%
04:00 +23°C° 0.2 mm 2 mps 750 mmHg 83%
05:00 +23°C° 0.2 mm 2 mps 750 mmHg 82%
06:00 +25°C° 0 mm 2 mps 750 mmHg 76%
07:00 +26°C° 0 mm 2 mps 751 mmHg 70%
08:00 +28°C° 0 mm 3 mps 751 mmHg 65%
09:00 +29°C° 0 mm 3 mps 751 mmHg 61%
10:00 +30°C° 0 mm 3 mps 751 mmHg 56%
11:00 +31°C° 0 mm 3 mps 751 mmHg 52%
12:00 +33°C° 0 mm 3 mps 751 mmHg 50%
13:00 +34°C° 0 mm 3 mps 751 mmHg 48%
14:00 +34°C° 0 mm 4 mps 751 mmHg 46%
15:00 +33°C° 0 mm 4 mps 751 mmHg 51%
16:00 +32°C° 0 mm 4 mps 751 mmHg 55%
17:00 +30°C° 0 mm 4 mps 751 mmHg 59%
18:00 +29°C° 0.4 mm 4 mps 751 mmHg 65%
19:00 +28°C° 0.4 mm 4 mps 751 mmHg 70%
20:00 +26°C° 0.4 mm 4 mps 752 mmHg 76%
21:00 +25°C° 0 mm 4 mps 752 mmHg 79%
22:00 +25°C° 0 mm 4 mps 752 mmHg 82%
23:00 +23°C° 0 mm 4 mps 752 mmHg 85%

28 June, Monday

Time Temperature Precipitation Wind Pressure Humidity
00:00 +23°C° 0 mm 4 mps 752 mmHg 86%
01:00 +22°C° 0 mm 4 mps 752 mmHg 87%
02:00 +22°C° 0 mm 3 mps 752 mmHg 88%
03:00 +21°C° 0 mm 3 mps 753 mmHg 88%
04:00 +21°C° 0 mm 3 mps 753 mmHg 87%
05:00 +21°C° 0 mm 4 mps 753 mmHg 86%
06:00 +23°C° 0 mm 4 mps 753 mmHg 79%
07:00 +25°C° 0 mm 4 mps 753 mmHg 72%
08:00 +27°C° 0 mm 4 mps 753 mmHg 65%
09:00 +28°C° 0 mm 4 mps 753 mmHg 61%
10:00 +29°C° 0 mm 4 mps 753 mmHg 56%
11:00 +30°C° 0 mm 5 mps 753 mmHg 52%
12:00 +32°C° 0 mm 4 mps 753 mmHg 50%
13:00 +32°C° 0 mm 4 mps 753 mmHg 48%
14:00 +32°C° 0 mm 4 mps 753 mmHg 45%
15:00 +30°C° 0 mm 4 mps 753 mmHg 51%
16:00 +29°C° 0 mm 4 mps 753 mmHg 56%
17:00 +28°C° 0 mm 3 mps 753 mmHg 62%
18:00 +27°C° 0 mm 3 mps 753 mmHg 64%
19:00 +26°C° 0 mm 3 mps 753 mmHg 66%
20:00 +26°C° 0 mm 3 mps 753 mmHg 68%
21:00 +25°C° 0 mm 3 mps 753 mmHg 69%
22:00 +25°C° 0 mm 3 mps 753 mmHg 69%
23:00 +24°C° 0 mm 3 mps 754 mmHg 70%
Show more